User: anonymous   Login
Location: *
(33.8649°S, 62.1526°E)
Time: 04:59:03
(UTC+00:00)
Language:

Okean 1-7 - Orbit

View from above orbital plane
View from above orbital plane
View from above satellite
View from above satellite

Ground track
Ground track

The orbit data is extracted from the following two-line orbital elements,

1 23317U 94066A   21101.86833027  .00000227  00000-0  21938-4 0  9991
2 23317  82.5369 246.2560 0021200 112.9086 247.4372 14.87898001433294
Epoch (UTC): 11 April 2021 20:50:23
Eccentricity: 0.0021200
inclination: 82.5369°
perigee height: 590 km
apogee height: 619 km
right ascension of ascending node: 246.2560°
argument of perigee: 112.9086°
revolutions per day: 14.87898001
mean anomaly at epoch: 247.4372°
orbit number at epoch: 43329

The dashed part of the orbit path shows where the satellite is in the earth's shadow,  

DLR